TimeCST,TemperatureF,Dew PointF,Humidity,Sea Level PressureIn,VisibilityMPH,Wind Direction,Wind SpeedMPH,Gust SpeedMPH,PrecipitationIn,Events,Conditions,WindDirDegrees,DateUTC
12:15 AM,35.6,32.0,87,30.29,10.0,Calm,Calm,-,N/A,,Clear,0,2012-11-18 06:15:00
12:35 AM,35.6,32.0,87,30.29,10.0,Calm,Calm,-,N/A,,Clear,0,2012-11-18 06:35:00
12:55 AM,33.8,32.0,93,30.29,10.0,Calm,Calm,-,N/A,,Clear,0,2012-11-18 06:55:00
1:15 AM,33.8,32.0,93,30.29,10.0,Calm,Calm,-,N/A,,Clear,0,2012-11-18 07:15:00
1:35 AM,33.8,32.0,93,30.28,10.0,Calm,Calm,-,N/A,,Clear,0,2012-11-18 07:35:00
1:55 AM,35.6,32.0,87,30.28,10.0,East,3.5,-,N/A,,Clear,100,2012-11-18 07:55:00
2:15 AM,39.2,32.0,75,30.27,10.0,East,4.6,-,N/A,,Clear,100,2012-11-18 08:15:00
2:35 AM,41.0,33.8,76,30.28,10.0,Calm,Calm,-,N/A,,Clear,0,2012-11-18 08:35:00
2:55 AM,39.2,32.0,75,30.28,10.0,Calm,Calm,-,N/A,,Scattered Clouds,0,2012-11-18 08:55:00
3:15 AM,42.8,33.8,70,30.28,10.0,ESE,3.5,-,N/A,,Overcast,120,2012-11-18 09:15:00
3:35 AM,44.6,35.6,71,30.27,10.0,ESE,5.8,-,N/A,,Overcast,110,2012-11-18 09:35:00
3:55 AM,44.6,35.6,71,30.27,10.0,ESE,5.8,-,N/A,,Overcast,110,2012-11-18 09:55:00
4:15 AM,44.6,35.6,71,30.27,10.0,ESE,4.6,-,N/A,,Overcast,110,2012-11-18 10:15:00
4:35 AM,44.6,35.6,71,30.27,10.0,East,4.6,-,N/A,,Scattered Clouds,100,2012-11-18 10:35:00
4:55 AM,44.6,35.6,71,30.27,10.0,ESE,4.6,-,N/A,,Clear,110,2012-11-18 10:55:00
5:15 AM,42.8,35.6,76,30.27,10.0,ESE,5.8,-,N/A,,Mostly Cloudy,110,2012-11-18 11:15:00
5:35 AM,42.8,35.6,76,30.26,10.0,ESE,6.9,-,N/A,,Scattered Clouds,110,2012-11-18 11:35:00
8:55 AM,50.0,39.2,66,30.30,10.0,SE,4.6,-,N/A,,Mostly Cloudy,140,2012-11-18 14:55:00
10:35 PM,59.0,37.4,45,30.19,10.0,SE,5.8,-,N/A,,Clear,130,2012-11-19 04:35:00
11:15 PM,59.0,37.4,45,30.18,10.0,SE,5.8,-,N/A,,Clear,140,2012-11-19 05:15:00
11:35 PM,57.2,39.2,51,30.18,10.0,SE,4.6,-,N/A,Rain,Light Rain,140,2012-11-19 05:35:00
11:55 PM,57.2,39.2,51,30.18,10.0,SE,5.8,-,N/A,Rain,Light Rain,130,2012-11-19 05:55:00